Dewpoint
61 60 65 65 57 56 45 44 44 46 50 52 53 53 50 50 52 54 64 66 66 68 70 71 71 71 70 71 72 71 72 72 72 72 72 72 72 72 72 72 72 72 72 72 72 72 72 72 71
57 56 66 62 53 44 44 45 47 52 52 51 53 54 54 54 59 62 63 65 67 69 69 72 73 71 71 72 72 72 72 72 72 72 72 72 72 71 71 71 71 72 72 71 71 72 72 71 72
64 61 57 55 52 45 44 47 48 51 51 49 51 53 54 56 61 64 65 66 66 67 70 72 73 72 72 72 72 72 72 72 72 72 72 72 72 72 72 72 72 72 72 72 72 72 72 71 71
62 63 61 49 49 49 45 47 46 52 53 54 53 52 55 62 63 64 64 67 67 70 72 73 72 71 71 72 71 72 72 72 72 72 71 71 72 72 72 72 72 72 72 72 73 72 71 71 71
63 61 54 52 51 51 47 49 47 52 55 52 53 51 57 63 65 59 58 65 67 70 72 72 72 72 71 72 72 72 72 72 72 72 72 72 71 71 71 71 71 72 72 72 71 71 71 71 71
61 60 51 50 52 53 51 52 51 51 53 53 53 52 57 65 65 64 61 63 68 70 71 72 72 72 72 72 72 72 72 72 72 72 72 71 71 71 72 72 72 71 71 72 72 71 71 70 69
58 57 54 52 53 55 52 49 49 53 51 52 53 51 54 62 64 63 64 65 67 69 71 71 71 72 71 72 72 73 72 72 72 72 72 72 72 72 72 73 72 71 71 69 70 71 71 71 69
61 58 53 53 52 53 59 53 54 54 55 53 52 51 50 60 62 63 63 66 67 68 68 70 71 71 72 72 72 72 72 72 72 72 71 72 72 71 71 73 72 71 71 72 71 70 69 69 68
64 55 50 52 51 55 60 57 56 54 52 52 52 53 52 60 61 62 62 63 66 66 67 69 69 70 71 71 71 72 72 72 72 71 71 72 71 71 71 71 71 71 71 71 72 72 71 70 69
56 51 50 53 55 57 58 58 60 53 51 51 52 53 53 56 58 59 59 62 64 65 67 68 69 70 70 70 71 72 71 72 71 71 71 70 70 70 69 71 71 70 71 71 71 72 72 71 69
59 48 54 53 57 57 57 57 60 56 53 52 53 52 53 53 53 56 59 63 63 65 66 65 68 67 67 70 71 71 71 70 71 70 70 70 70 70 70 70 70 70 71 70 72 72 72 72 71
55 56 56 56 57 58 58 61 59 55 55 56 55 52 53 54 57 55 58 63 63 63 62 64 65 65 68 69 70 70 70 68 66 68 68 69 65 66 67 69 69 69 68 69 69 70 70 69 69
59 58 57 55 57 60 59 58 55 54 54 53 52 52 55 57 56 57 58 63 63 63 65 64 68 67 69 68 67 68 67 67 66 66 66 69 66 65 66 67 68 69 68 69 66 67 66 64 63
57 52 56 54 59 58 55 57 56 57 57 53 51 53 57 56 51 57 60 61 64 66 66 67 64 60 68 67 65 67 69 65 64 66 65 70 67 67 68 67 63 64 67 66 65 63 66 62 60
52 51 56 56 58 57 57 51 52 57 56 53 50 53 55 58 58 58 59 61 65 67 66 61 59 63 66 64 62 64 67 65 65 68 67 68 67 66 67 65 66 67 67 65 66 65 67 63 60
53 54 50 57 53 57 55 48 51 56 55 56 55 53 56 56 57 59 59 62 64 66 66 67 65 68 66 62 63 66 67 66 67 66 69 61 63 70 65 69 65 66 70 69 67 66 64 61 58
42 44 50 52 54 52 55 52 53 55 56 56 55 55 54 58 58 59 59 60 64 65 66 66 65 68 64 66 63 66 68 66 66 66 66 63 66 68 69 70 67 70 68 68 68 66 66 60 59
40 41 47 48 54 55 53 53 53 53 55 54 56 57 53 57 57 59 59 60 63 64 65 65 65 65 68 68 67 68 65 65 66 66 68 70 70 68 69 68 64 67 64 65 65 69 66 62 61
40 41 45 49 49 55 53 52 54 53 55 54 56 57 57 57 58 59 60 60 62 65 66 66 65 65 68 65 66 64 60 65 68 69 67 61 63 70 69 69 62 65 62 62 68 68 68 65 64
38 39 48 52 55 55 51 52 55 54 54 53 56 57 57 58 59 59 59 61 62 64 64 66 66 67 66 65 67 63 62 64 67 69 63 57 61 67 70 65 60 58 56 65 64 69 69 67 66
34 36 44 42 45 45 48 49 55 54 55 55 55 56 58 59 59 60 59 61 64 63 65 65 66 66 66 67 68 66 66 68 67 67 67 65 66 69 70 69 67 68 67 67 64 67 62 61 61
31 36 41 41 41 37 42 41 53 55 55 54 53 55 56 58 61 60 61 60 64 64 67 67 67 67 66 65 66 65 65 64 65 65 67 67 68 68 70 69 67 66 64 63 64 67 58 60 66
26 32 32 35 35 34 34 40 47 55 54 54 54 53 53 56 61 59 60 59 64 67 68 68 68 67 68 67 68 64 65 65 64 66 68 68 68 67 68 70 68 66 63 62 63 69 70 69 67
24 31 34 35 34 32 38 40 48 51 53 55 55 54 53 56 59 59 57 61 62 66 68 68 68 67 68 68 68 66 65 66 66 65 67 68 67 67 70 69 69 69 67 66 67 70 70 68 55
21 22 23 31 33 33 39 37 46 53 54 55 55 55 53 54 59 58 60 61 63 66 67 68 68 67 69 67 67 67 68 65 66 68 67 67 67 68 67 70 69 70 70 70 70 70 70 71 70
21 20 20 24 25 30 37 39 45 51 53 54 54 57 55 54 57 60 60 58 60 65 67 68 68 67 69 68 67 69 68 68 66 66 67 67 68 66 67 70 70 70 71 70 69 71 69 71 70
15 19 22 18 26 30 40 46 44 47 50 53 54 58 58 55 53 59 58 56 58 60 66 68 67 67 68 68 69 69 70 68 66 63 70 69 69 67 70 71 70 69 70 71 69 68 68 70 69
12 15 20 33 30 27 40 42 37 45 49 53 53 55 56 54 54 59 59 59 61 59 66 68 68 68 68 68 70 69 69 69 69 69 67 69 69 70 71 68 69 70 70 70 71 69 70 70 69
32 23 36 40 41 34 36 40 46 49 51 53 56 58 58 53 53 57 58 60 63 62 63 68 69 68 67 67 69 68 68 69 70 70 67 67 68 70 69 69 68 69 70 70 71 69 70 69 68
34 33 35 33 37 40 40 41 49 52 53 54 56 60 61 63 59 58 59 62 63 63 65 68 68 68 68 68 68 67 68 70 69 69 69 68 65 69 70 69 67 66 69 69 69 69 69 69 68
Wind_Speed
4 6 6 6 6 3 3 11 17 20 22 23 19 11 10 11 8 17 24 21 23 18 16 15 14 15 15 18 19 18 16 15 15 14 13 15 16 16 15 15 15 14 13 14 14 14 13 13 14
4 8 5 4 4 2 5 7 17 22 13 20 30 28 24 30 25 23 18 25 23 21 15 15 16 17 17 19 20 18 17 16 16 15 14 16 16 16 16 15 15 17 15 14 13 13 12 14 13
3 8 5 3 3 2 7 15 12 20 16 13 13 19 14 26 24 9 19 24 25 21 16 16 18 18 19 19 20 18 17 17 16 15 16 17 17 17 16 16 16 18 16 15 15 13 11 14 14
4 3 6 2 6 11 10 20 19 27 15 15 14 17 27 32 18 19 28 21 22 21 17 18 19 18 19 19 19 18 17 17 17 16 16 16 17 17 17 17 17 17 16 16 14 13 11 11 13
7 5 6 5 9 4 6 21 18 18 10 13 30 22 27 25 35 28 27 21 23 20 17 16 20 18 18 17 17 18 17 16 16 17 16 17 17 17 16 17 17 16 15 14 13 11 10 7 8
7 3 6 3 10 12 17 21 17 16 23 30 30 24 17 33 31 27 27 24 27 25 20 17 20 18 18 17 17 16 16 16 16 16 16 17 17 16 15 18 17 16 15 15 13 10 7 5 4
9 9 3 2 9 13 4 9 18 19 16 20 28 27 21 30 31 27 27 21 25 22 21 17 15 17 18 17 17 16 16 16 16 16 16 17 16 17 15 15 17 15 15 14 12 9 8 6 4
10 3 5 4 9 8 19 9 17 26 7 24 25 19 17 34 39 28 22 14 16 22 21 18 14 14 13 14 16 15 15 16 16 16 16 16 15 16 15 13 13 13 12 11 10 8 5 5 6
10 9 6 5 8 1 21 10 8 19 24 17 8 24 22 34 28 23 24 21 23 14 15 18 15 12 13 12 12 12 13 14 15 14 15 15 11 13 10 9 10 10 10 10 10 8 5 5 5
4 11 18 16 6 12 8 8 9 4 26 21 25 20 20 31 29 26 26 24 25 22 22 18 15 16 14 11 11 10 9 10 13 13 13 12 9 12 10 9 9 9 8 7 6 8 8 6 6
9 6 11 7 16 15 8 15 16 7 18 31 28 22 19 23 19 18 23 32 33 22 19 15 10 2 14 12 11 11 10 11 9 12 14 13 11 11 10 9 8 7 9 9 10 9 8 10 10
8 10 13 14 14 13 11 5 10 7 12 14 30 23 18 20 16 18 11 26 22 21 26 21 12 13 14 16 15 13 11 8 8 4 10 11 11 11 11 9 8 9 9 11 11 13 11 14 15
8 22 6 17 16 21 22 21 4 8 16 18 19 21 20 18 14 8 15 22 28 26 21 23 16 20 16 13 11 8 11 9 7 6 7 6 7 11 13 12 11 11 12 9 8 10 9 8 5
8 26 9 15 19 15 15 4 4 3 6 16 22 22 24 21 18 7 20 23 27 26 23 16 18 11 7 3 9 1 5 13 12 6 6 4 7 2 2 6 4 4 8 6 7 6 2 2 2
13 16 10 11 17 8 9 1 3 2 9 12 22 22 18 19 13 17 22 24 25 22 17 19 17 12 12 8 8 5 6 4 10 10 9 4 5 2 5 3 1 3 3 3 4 1 4 7 3
7 7 14 7 22 5 10 10 7 1 7 14 12 21 22 17 22 14 18 22 22 25 24 17 14 15 14 7 9 8 7 8 14 12 10 4 2 3 3 6 5 6 8 11 9 6 3 9 8
7 6 10 4 9 9 14 3 17 6 4 11 9 12 13 12 14 18 20 22 26 25 20 16 16 20 17 17 11 12 7 16 15 13 11 8 3 4 14 19 13 6 10 18 11 10 11 11 10
2 5 10 5 7 16 16 15 10 15 10 3 14 12 13 10 10 19 17 20 25 20 23 23 17 16 15 16 12 8 6 11 14 14 10 7 8 14 18 13 6 5 8 8 7 12 3 5 8
6 8 11 8 8 13 21 16 19 19 14 12 7 16 16 20 6 18 16 23 22 24 23 25 20 17 13 10 5 6 9 3 8 11 12 8 8 14 20 4 4 8 7 11 11 11 9 8 2
14 14 16 11 13 23 17 18 18 21 22 19 15 14 18 9 4 16 19 21 25 20 23 22 22 21 17 13 7 7 9 4 15 13 11 6 9 5 13 10 6 3 8 14 16 8 5 5 8
4 12 11 8 17 15 13 11 17 16 11 12 16 15 10 10 7 11 15 24 21 23 20 24 23 21 17 13 8 7 4 8 7 11 9 8 8 8 12 12 8 6 5 4 10 2 6 4 6
10 14 12 6 7 9 16 6 17 20 19 21 21 19 18 12 6 13 8 13 24 22 18 21 23 21 17 15 11 10 10 14 10 12 9 10 9 7 5 17 11 8 5 6 5 6 5 4 10
2 7 3 8 8 10 14 7 8 21 20 27 28 21 19 16 16 17 17 12 21 24 21 19 22 21 14 14 12 14 9 8 10 10 9 11 10 6 5 13 15 11 6 6 3 1 2 8 3
16 3 5 6 5 5 7 5 8 19 27 26 24 24 24 19 21 24 23 9 18 22 22 21 22 22 17 14 11 14 11 10 5 10 13 14 10 11 7 12 11 7 6 5 5 4 2 4 4
19 6 6 5 2 5 10 9 5 22 17 19 28 25 27 26 26 24 21 16 21 24 25 22 22 24 19 17 14 12 7 7 5 15 14 14 13 7 10 9 11 8 7 4 1 2 1 4 7
11 11 12 5 2 15 11 6 1 14 24 12 15 25 25 23 27 29 24 19 22 28 28 25 25 26 22 19 17 12 11 7 8 14 6 12 13 9 7 13 13 10 8 7 5 2 6 9 11
12 11 15 16 13 7 2 4 6 19 23 24 21 15 26 27 25 31 28 26 21 24 35 31 27 24 24 23 18 16 12 14 11 11 8 8 10 10 1 14 11 10 9 10 10 8 9 8 8
11 12 11 7 6 4 3 1 12 14 26 23 28 30 20 25 23 28 29 27 18 26 30 31 29 27 27 24 21 19 16 12 11 11 7 7 3 8 15 15 11 12 14 12 12 9 8 6 9
10 10 7 8 4 1 5 8 5 7 17 23 30 33 32 24 23 29 31 31 21 18 19 28 26 25 24 22 20 19 18 16 14 10 9 7 7 10 12 12 12 9 6 7 6 11 8 6 5
9 6 5 3 1 4 4 5 3 3 12 18 31 36 12 13 9 18 26 22 19 17 10 20 23 25 26 24 23 21 19 18 20 18 15 13 14 11 12 11 9 10 8 9 9 11 9 7 9
Wind_Direction
236 237 220 8 322 235 55 150 79 98 69 72 106 128 139 109 112 120 142 155 136 139 146 145 142 130 125 123 118 111 114 117 119 117 116 111 103 99 101 101 103 107 104 109 113 113 115 110 108
235 256 84 117 328 46 34 93 56 89 115 77 89 103 98 83 89 122 132 132 131 140 141 142 141 135 130 123 116 121 120 120 117 114 113 106 107 109 104 105 107 110 116 114 118 121 114 107 104
278 249 85 106 268 179 138 107 91 79 64 90 95 106 105 111 109 104 114 140 137 132 130 138 137 133 127 121 119 122 122 119 113 112 112 109 109 105 107 109 110 108 111 116 118 116 115 112 112
237 172 70 148 238 235 154 128 111 98 69 69 87 86 106 121 119 135 114 102 112 119 128 136 133 128 128 125 125 124 122 119 116 117 113 112 108 106 108 108 108 109 110 118 119 118 116 118 115
258 33 63 339 298 262 158 96 89 95 105 115 106 114 112 108 131 137 127 133 125 124 129 135 130 129 132 129 130 129 125 122 122 118 119 113 110 112 110 110 112 111 113 119 116 117 117 125 106
33 44 66 360 358 255 60 98 85 100 146 109 111 114 118 131 132 146 145 156 136 137 131 138 132 132 132 131 130 128 127 127 125 124 121 119 115 117 115 115 119 120 117 117 123 130 132 121 105
85 358 23 25 337 300 42 29 98 119 102 117 123 113 128 130 135 150 151 144 127 128 128 132 130 135 134 136 139 134 132 131 129 132 128 124 124 122 114 111 123 121 122 126 132 149 149 148 182
77 276 267 350 314 331 8 318 113 122 112 133 126 137 130 134 128 138 124 107 132 130 131 129 132 131 135 138 139 138 142 142 139 136 136 130 132 126 123 122 126 133 131 134 146 155 164 192 209
143 169 169 205 255 286 6 0 28 132 133 145 122 134 141 129 132 135 135 130 102 92 117 134 141 144 135 130 144 149 151 149 146 146 149 147 145 138 127 137 140 141 141 154 165 160 185 233 264
179 168 195 179 210 83 74 317 326 121 160 114 124 140 143 135 134 148 134 124 119 131 120 123 119 134 143 145 152 157 172 169 161 163 167 163 168 156 149 159 172 166 165 178 184 188 192 212 237
179 252 176 221 123 73 21 353 340 355 105 138 138 141 142 134 142 139 130 140 145 139 118 140 151 216 147 154 166 170 185 194 204 198 179 198 176 163 163 176 198 198 204 196 210 220 216 228 234
163 202 148 140 128 108 171 175 266 117 150 167 158 143 133 138 95 117 154 129 135 130 141 153 199 246 181 172 175 185 200 194 171 153 169 169 151 153 182 189 213 227 230 221 207 223 211 226 233
343 83 76 150 129 146 175 219 75 87 117 140 159 144 123 123 150 156 170 128 131 138 150 165 189 162 163 170 181 174 179 190 170 112 96 68 178 190 194 198 213 223 248 241 222 221 214 225 200
209 110 233 160 129 158 154 179 295 70 302 193 142 131 124 118 180 161 143 130 138 148 161 165 183 133 91 102 69 207 243 180 152 148 116 118 153 115 95 224 103 282 184 200 187 176 238 265 30
164 127 159 137 124 132 143 349 160 95 13 113 159 138 139 144 170 161 141 140 134 135 137 155 175 145 125 118 152 193 212 208 158 149 134 77 53 65 2 356 320 215 244 174 258 219 294 181 113
110 104 151 61 35 170 216 213 228 88 67 52 84 133 121 143 139 159 142 131 137 142 147 179 164 148 183 137 175 225 261 252 152 142 128 153 184 106 74 357 306 351 21 0 332 310 52 171 156
226 162 76 124 161 223 211 253 219 230 301 96 104 116 124 93 151 171 158 151 150 153 157 162 189 157 166 173 206 225 247 158 164 156 164 171 188 54 54 37 12 44 36 29 322 307 283 202 177
211 136 101 213 175 222 208 246 191 212 206 174 137 146 166 165 209 153 167 138 153 150 158 152 172 169 168 181 204 242 125 145 164 169 153 115 73 73 58 48 44 37 19 47 334 307 55 159 206
207 194 165 186 191 184 203 213 201 205 203 185 191 165 174 205 173 174 172 144 144 138 150 153 161 171 174 181 182 175 154 111 141 143 139 122 107 115 116 240 132 150 177 16 355 329 342 347 223
196 198 110 67 315 210 208 215 185 190 204 188 184 192 193 172 249 200 181 148 150 149 144 151 163 169 173 181 191 182 169 151 153 150 153 175 144 139 128 153 130 97 57 11 357 358 16 344 355
44 262 146 166 215 229 185 215 174 201 195 205 199 194 175 163 169 168 170 154 152 162 160 149 160 169 180 180 196 202 177 121 140 157 170 176 169 186 130 164 115 100 85 5 308 309 32 359 335
205 157 126 177 216 242 196 246 189 177 197 205 219 182 190 175 210 178 185 184 164 170 168 160 163 173 189 194 209 205 187 155 178 180 175 173 201 198 173 135 136 144 166 169 263 26 72 64 341
303 100 193 192 248 269 267 233 221 158 207 210 209 191 189 190 168 199 218 191 178 164 168 167 166 180 192 191 209 211 184 168 175 187 173 193 188 199 218 142 170 184 170 198 228 330 350 64 12
284 159 222 189 248 267 347 20 154 186 218 212 207 201 185 182 182 208 217 169 193 174 171 170 171 178 191 196 187 186 180 157 168 221 201 186 184 207 231 177 167 179 204 205 223 258 107 126 262
258 292 282 231 235 248 349 355 253 207 225 212 205 199 189 184 180 206 215 181 191 182 179 175 177 177 192 196 194 194 160 160 161 166 170 184 194 204 212 183 176 183 191 216 301 237 224 235 233
231 240 236 291 234 282 351 351 311 21 21 305 232 198 191 191 186 201 206 205 184 188 180 178 180 178 184 190 198 197 186 173 190 168 213 182 187 182 222 207 187 192 196 203 217 210 269 283 271
285 269 237 261 216 208 165 336 339 2 4 7 15 194 191 194 199 188 196 201 201 188 184 177 181 182 182 185 196 194 185 195 201 211 209 174 182 182 111 174 183 210 212 210 209 210 243 266 279
243 280 324 18 11 310 328 181 250 332 332 349 349 328 296 192 188 195 195 200 215 200 177 174 178 181 182 181 185 188 185 196 200 209 193 131 139 148 164 164 189 216 221 213 206 204 244 287 275
5 311 45 96 44 23 7 305 247 346 343 354 333 324 293 243 208 182 189 193 194 172 174 178 180 178 179 183 185 184 189 198 204 196 195 199 175 178 191 182 193 179 214 224 206 214 229 272 282
349 64 109 78 246 136 168 250 161 102 25 7 332 310 16 349 271 179 174 171 171 161 113 186 182 184 184 179 183 188 193 198 203 202 202 217 202 198 189 188 193 215 229 240 234 218 230 247 249